Regional Weather Roundup
Issued by NWS Cleveland, OH

Home | Current Version | Previous Version | Graphics & Text | Print | Product List | Glossary On
Versions: 1 2 3 4 5 6 7 8 9 10 11 12 13 14 15 16 17 18 19 20 21 22 23 24 25 26 27 28 29 30 31 32 33 34 35 36 37 38 39 40 41 42 43 44 45 46 47 48 49 50
000
ASUS41 KCLE 250312
RWRCLE
OHIO REGIONAL WEATHER ROUNDUP
NATIONAL WEATHER SERVICE WILMINGTON, OH
1100 PM EDT FRI MAR 24 2017

NOTE: "FAIR" INDICATES FEW OR NO CLOUDS BELOW 12,000 FEET WITH NO
SIGNIFICANT WEATHER AND/OR OBSTRUCTIONS TO VISIBILITY.

OHZ001>008-015>018-024>027-034-035-043-044-250400-
   NORTHWEST OHIO

CITY           SKY/WX    TMP DP  RH WIND       PRES   REMARKS
DEFIANCE       FAIR      63  52  67 SW8       30.05R
FINDLAY        CLOUDY    63  52  67 S8        30.06S
TOLEDO EXPRESS FAIR      67  53  61 SW15      30.03S
TOLEDO EXEC    FAIR      65  54  67 SW13      30.04R
LIMA           MOCLDY    63  53  70 S8        30.09R
$$

OHZ009>014-019>023-028>033-038-089-250400-
   NORTHEAST OHIO

CITY           SKY/WX    TMP DP  RH WIND       PRES   REMARKS
CLE-HOPKINS    MOCLDY    68  50  52 SW12      30.08R
CLE-LAKEFRONT  FAIR      69  51  52 S20G29    30.03S
CUY CO. ARPT   CLEAR     68  54  60 SW14G25   30.06R
LORAIN-ELYRIA  FAIR      64  51  62 SW14      30.06S
ASHTABULA      FAIR      65  52  62 SW9       30.06R
AKRON-CANTON   FAIR      62  51  67 SW13      30.10S
WOOSTER        FAIR      63  52  67 SW12      30.10R
MANSFIELD      FAIR      62  52  69 MISG      30.10S
YOUNGSTOWN     FAIR      65  51  60 SW12      30.08F
$$

OHZ042-051>053-060>062-070>072-077>081-250400-
  SOUTHWEST OHIO

CITY           SKY/WX    TMP DP  RH WIND       PRES   REMARKS
CINC-COVINGTON CLOUDY    67  52  58 SW8       30.14R
CINC-LUNKEN    FAIR      64  53  67 SW7       30.14R
HAMILTON       FAIR      67  53  61 SW6       30.14R
DAYTON         MOCLDY    64  52  64 SW10      30.12R
WRIGHT-PAT AFB MOCLDY    65  53  65 SW10      30.12R
DAYTON GENERAL FAIR      66  52  60 SW8       30.12R
WILMINGTON     FAIR      62  52  69 SW9       30.13R
$$

OHZ036-037-039>041-045>050-054>059-063>069-073>076-082>088-250400-
  CENTRAL AND SOUTHEAST OHIO

CITY           SKY/WX    TMP DP  RH WIND       PRES   REMARKS
COLUMBUS       FAIR      65  53  65 S6        30.13R
OSU AIRPORT    FAIR      62  54  74 S6        30.12R
BOLTON FIELD   FAIR      60  52  76 SW6       30.13R
RICKENBACK AFB FAIR      61  52  71 SW3       30.13R
NEWARK         FAIR      63  51  65 SW3       30.12R
MARION         FAIR      61  52  72 S10       30.10S
LANCASTER      FAIR      68  52  56 SW7       30.13S
ZANESVILLE     FAIR      66  50  56 SW3       30.12F
NEW PHILLY     FAIR      67  52  58 SW5       30.12S
$$




USA.gov is the U.S. government's official web portal to all federal, state and local government web resources and services.